Vorticity
nan nan nan nan nan nan nan nan nan nan nan nan nan nan nan nan nan nan nan nan nan nan nan nan nan nan nan nan nan nan nan nan
nan 6 6 5 7 6 7 6 7 6 6 5 5 3 4 5 5 5 5 4 5 5 4 5 5 5 6 10 6 1 5 nan
nan 5 5 6 6 7 7 6 4 5 5 4 1 3 6 5 6 6 5 5 4 4 4 4 5 5 5 6 4 3 6 nan
nan 7 4 6 6 6 5 5 4 5 6 4 4 7 6 6 7 6 4 4 3 3 3 4 5 6 6 5 7 7 6 nan
nan 6 6 4 5 4 5 6 7 8 8 5 6 7 7 5 5 5 6 5 4 5 5 5 5 5 8 8 8 6 6 nan
nan 8 6 3 5 7 6 6 7 8 7 6 5 6 7 8 7 7 6 7 7 5 6 6 6 7 7 7 8 6 7 nan
nan 7 6 7 5 5 7 6 7 8 8 6 6 7 7 7 8 7 6 7 7 7 7 7 7 7 7 11 9 7 7 nan
nan 7 6 6 8 7 5 7 7 7 8 7 6 7 7 6 7 7 7 6 7 8 7 7 7 6 10 13 8 8 7 nan
nan 6 5 6 6 5 6 7 8 7 7 8 7 7 8 7 5 6 7 8 7 6 7 7 8 9 10 10 10 8 7 nan
nan 8 8 6 5 5 6 8 7 7 7 9 7 6 7 6 7 7 7 7 7 7 8 8 9 8 8 9 8 8 9 nan
nan 8 7 5 6 7 9 7 5 7 7 9 9 6 7 5 6 8 8 7 7 7 7 8 9 8 8 9 9 9 8 nan
nan 6 6 5 4 6 8 8 8 8 7 9 9 7 7 5 6 7 7 7 6 7 8 7 8 9 9 9 10 10 10 nan
nan 8 4 2 6 7 8 7 6 8 11 10 8 7 6 6 6 7 7 8 8 5 7 8 6 8 7 6 9 11 9 nan
nan 10 8 7 4 6 8 11 10 8 8 9 8 8 6 6 7 7 7 7 9 9 4 6 10 7 4 7 6 5 9 nan
nan 24 22 10 5 0 2 8 11 11 10 11 10 9 7 5 6 6 7 8 9 10 9 5 5 6 7 5 8 9 6 nan
nan 10 25 24 9 10 8 2 5 7 7 7 12 11 8 7 6 6 5 7 9 9 8 8 6 4 5 8 9 11 7 nan
nan 11 8 22 25 7 6 5 4 7 10 11 10 10 11 8 6 6 4 6 10 9 6 7 6 6 5 5 5 7 10 nan
nan 11 12 9 20 24 7 7 5 5 7 8 9 11 13 11 7 6 6 5 7 9 9 6 5 4 6 7 7 4 7 nan
nan 12 15 14 8 19 26 9 9 10 6 7 7 6 10 13 9 6 7 7 7 8 9 9 7 6 4 4 7 6 5 nan
nan nan nan nan nan nan nan nan nan nan nan nan nan nan nan nan nan nan nan nan nan nan nan nan nan nan nan nan nan nan nan nan
CAPE
888 1017 1041 974 924 763 659 661 619 613 652 677 608 629 842 904 773 437 71 9 0 24 35 43 40 1 0 0 0 0 0 16
1135 1107 1065 921 681 439 457 453 415 450 427 349 328 463 697 697 495 234 28 0 0 0 0 0 0 0 0 0 0 0 0 0
818 860 1179 863 648 409 309 319 286 310 260 137 132 319 465 497 311 88 21 0 0 0 0 0 0 0 0 0 0 0 0 0
561 800 904 832 654 479 282 365 260 247 123 30 30 159 291 369 222 23 0 0 0 0 0 0 0 0 0 0 0 0 0 0
682 799 790 813 625 527 285 254 171 105 28 1 0 11 191 157 69 4 0 0 0 0 0 0 0 0 0 0 0 0 0 0
950 910 754 695 645 534 338 224 150 95 22 0 0 0 0 0 0 0 0 0 0 0 0 0 0 0 0 0 0 0 0 0
1083 1119 951 774 485 483 322 192 137 81 16 0 0 0 0 0 0 0 0 0 0 0 0 0 0 0 0 0 0 0 1 2
1224 1297 1144 842 673 502 337 169 108 58 32 0 0 0 0 0 0 0 0 0 0 0 0 0 0 0 0 0 0 0 0 10
1313 1440 1280 857 705 649 385 160 101 70 58 0 0 0 0 0 0 0 0 0 0 0 0 0 0 0 0 0 0 0 0 8
1158 1674 1436 888 790 703 422 166 118 88 70 2 0 0 0 0 0 0 0 0 0 0 0 0 0 0 0 0 0 0 0 3
1076 1428 1457 1015 886 627 329 147 137 122 82 52 0 9 0 0 0 0 0 0 0 0 0 0 0 0 0 0 0 0 0 7
964 1152 1384 1140 648 492 173 67 104 91 106 77 0 10 30 0 0 0 0 0 0 0 0 0 0 0 0 86 39 3 1 3
865 1026 1099 1150 480 319 140 102 53 37 89 106 28 0 109 0 0 0 0 0 0 0 0 0 0 0 214 202 107 103 44 1
618 1101 655 796 550 419 222 211 90 65 68 152 70 0 81 12 0 0 0 0 0 0 0 0 0 28 156 95 196 178 56 20
0 13 928 819 519 589 348 259 76 41 4 103 104 11 15 121 0 0 0 0 0 0 0 0 0 4 113 114 58 182 49 4
0 0 30 1013 723 395 507 272 347 169 111 165 174 59 2 112 49 0 0 0 0 0 0 0 0 0 16 71 30 10 31 40
0 0 0 0 1104 475 692 508 459 335 336 158 234 115 20 46 87 0 0 0 0 0 0 0 0 0 8 115 16 0 0 0
0 0 0 0 1 880 514 724 494 645 397 445 298 284 77 32 25 54 0 0 0 0 0 0 0 0 0 36 174 53 0 0
0 0 0 0 0 0 711 453 641 566 781 649 620 466 257 151 37 41 41 12 0 0 0 0 0 0 0 0 37 158 2 0
0 0 0 0 0 0 0 903 588 731 736 807 706 755 534 403 231 136 93 27 16 0 0 0 0 0 0 0 0 29 43 27